When you browse on this site, cookies collect data to enhance your experience and personalize the content and advertising you see.
Visit our Privacy Policy to learn more. By continuing to use the site, you agree to this use of cookies and data.
  • In Austria
  • List of Countries
  • For 7 days
  • Water Temperature
  • Satellite Maps
  • Weather Map
  • News
  • Weather Widgets
  • user-avatar
    Login

    Hourly Weather Klagenfurt

    Today, 18 January, Friday

    Time Temperature Precipitation Wind Pressure Humidity
    00:00 +4°C° 1.6 mm 1 mps 683 mmHg 95%
    01:00 +3°C° 0 mm 1 mps 683 mmHg 95%
    02:00 +3°C° 3.2 mm 1 mps 683 mmHg 94%
    03:00 +3°C° 3.2 mm 1 mps 683 mmHg 94%
    04:00 +2°C° 3.2 mm 2 mps 683 mmHg 93%
    05:00 +1°C° 3.4 mm 2 mps 683 mmHg 93%
    06:00 -1°C° 3.4 mm 2 mps 684 mmHg 93%
    07:00 -2°C° 0 mm 2 mps 684 mmHg 93%
    08:00 -2°C° 1.5 mm 2 mps 685 mmHg 93%
    09:00 0°C° 1.5 mm 1 mps 685 mmHg 93%
    10:00 0°C° 1.5 mm 1 mps 686 mmHg 93%
    11:00 0°C° 0.5 mm 1 mps 687 mmHg 89%
    12:00 0°C° 0.5 mm 1 mps 687 mmHg 86%
    13:00 +1°C° 0.5 mm 1 mps 688 mmHg 82%
    14:00 0°C° 0.1 mm 1 mps 688 mmHg 83%
    15:00 0°C° 0.1 mm 1 mps 688 mmHg 83%
    16:00 0°C° 0.1 mm 1 mps 688 mmHg 83%
    17:00 -1°C° 0.1 mm 1 mps 688 mmHg 85%
    18:00 -1°C° 0.1 mm 1 mps 689 mmHg 86%
    19:00 -2°C° 0.1 mm 1 mps 689 mmHg 88%
    20:00 -3°C° 0.1 mm 1 mps 689 mmHg 89%
    21:00 -3°C° 0.1 mm 1 mps 689 mmHg 91%
    22:00 -5°C° 0.1 mm 0 mps 690 mmHg 92%
    23:00 -5°C° 0.1 mm 0 mps 690 mmHg 92%

    Tomorrow, 19 January, Saturday

    Time Temperature Precipitation Wind Pressure Humidity
    00:00 -5°C° 0.1 mm 0 mps 690 mmHg 93%
    01:00 -5°C° 0.1 mm 0 mps 689 mmHg 93%
    02:00 -5°C° 0 mm 0 mps 689 mmHg 93%
    03:00 -5°C° 0 mm 0 mps 689 mmHg 93%
    04:00 -6°C° 0 mm 0 mps 689 mmHg 93%
    05:00 -6°C° 0 mm 0 mps 689 mmHg 93%
    06:00 -6°C° 0 mm 0 mps 689 mmHg 93%
    07:00 -6°C° 0 mm 1 mps 688 mmHg 93%
    08:00 -4°C° 0 mm 1 mps 688 mmHg 90%
    09:00 -4°C° 0 mm 1 mps 689 mmHg 87%
    10:00 -3°C° 0 mm 1 mps 689 mmHg 84%
    11:00 -2°C° 0 mm 1 mps 688 mmHg 82%
    12:00 -2°C° 0 mm 1 mps 688 mmHg 80%
    13:00 -1°C° 0 mm 1 mps 687 mmHg 78%
    14:00 -1°C° 0 mm 1 mps 687 mmHg 80%
    15:00 -2°C° 0 mm 1 mps 687 mmHg 83%
    16:00 -2°C° 0 mm 1 mps 687 mmHg 86%
    17:00 -3°C° 0 mm 1 mps 687 mmHg 88%
    18:00 -3°C° 0 mm 1 mps 687 mmHg 90%
    19:00 -5°C° 0 mm 0 mps 686 mmHg 92%
    20:00 -5°C° 0 mm 0 mps 686 mmHg 92%
    21:00 -5°C° 0 mm 0 mps 686 mmHg 92%
    22:00 -5°C° 0 mm 0 mps 686 mmHg 92%
    23:00 -5°C° 0 mm 0 mps 686 mmHg 92%

    Day after tomorrow, 20 January, Sunday

    Time Temperature Precipitation Wind Pressure Humidity
    00:00 -6°C° 0 mm 0 mps 686 mmHg 92%
    01:00 -6°C° 0 mm 0 mps 686 mmHg 92%
    02:00 -6°C° 0 mm 0 mps 686 mmHg 92%
    03:00 -6°C° 0 mm 0 mps 686 mmHg 91%
    04:00 -6°C° 0 mm 0 mps 685 mmHg 91%
    05:00 -6°C° 0 mm 0 mps 685 mmHg 91%
    06:00 -6°C° 0 mm 0 mps 685 mmHg 90%
    07:00 -7°C° 0 mm 0 mps 685 mmHg 90%
    08:00 -5°C° 0 mm 0 mps 686 mmHg 87%
    09:00 -4°C° 0 mm 0 mps 686 mmHg 84%
    10:00 -2°C° 0 mm 0 mps 686 mmHg 81%
    11:00 -1°C° 0 mm 0 mps 686 mmHg 80%
    12:00 0°C° 0 mm 0 mps 686 mmHg 79%
    13:00 +1°C° 0 mm 0 mps 686 mmHg 78%
    14:00 0°C° 0 mm 0 mps 686 mmHg 80%
    15:00 0°C° 0 mm 0 mps 686 mmHg 82%
    16:00 -1°C° 0 mm 0 mps 686 mmHg 84%
    17:00 -2°C° 0 mm 0 mps 686 mmHg 87%
    18:00 -4°C° 0 mm 0 mps 687 mmHg 89%
    19:00 -5°C° 0 mm 0 mps 687 mmHg 91%
    20:00 -5°C° 0 mm 0 mps 687 mmHg 92%
    21:00 -5°C° 0 mm 0 mps 688 mmHg 92%
    22:00 -5°C° 0 mm 0 mps 688 mmHg 92%
    23:00 -5°C° 0 mm 0 mps 688 mmHg 92%

    21 January, Monday

    Time Temperature Precipitation Wind Pressure Humidity
    00:00 -5°C° 0 mm 0 mps 689 mmHg 92%
    01:00 -5°C° 0 mm 0 mps 689 mmHg 92%
    02:00 -6°C° 0 mm 0 mps 689 mmHg 92%
    03:00 -6°C° 0 mm 0 mps 689 mmHg 92%
    04:00 -6°C° 0 mm 0 mps 689 mmHg 92%
    05:00 -6°C° 0 mm 0 mps 689 mmHg 91%
    06:00 -6°C° 0 mm 0 mps 689 mmHg 91%
    07:00 -6°C° 0 mm 0 mps 690 mmHg 91%
    08:00 -4°C° 0 mm 1 mps 690 mmHg 88%
    09:00 -3°C° 0 mm 1 mps 691 mmHg 85%
    10:00 -2°C° 0 mm 1 mps 691 mmHg 82%
    11:00 -1°C° 0 mm 1 mps 691 mmHg 81%
    12:00 -1°C° 0 mm 1 mps 691 mmHg 79%
    13:00 0°C° 0 mm 1 mps 691 mmHg 77%
    14:00 -1°C° 0 mm 1 mps 691 mmHg 80%
    15:00 -1°C° 0 mm 1 mps 691 mmHg 82%
    16:00 -1°C° 0 mm 1 mps 690 mmHg 84%
    17:00 -2°C° 0 mm 1 mps 691 mmHg 87%
    18:00 -3°C° 0 mm 1 mps 691 mmHg 90%
    19:00 -5°C° 0 mm 0 mps 691 mmHg 93%
    20:00 -6°C° 0 mm 0 mps 691 mmHg 93%
    21:00 -6°C° 0 mm 0 mps 691 mmHg 94%
    22:00 -6°C° 0 mm 0 mps 691 mmHg 94%
    23:00 -6°C° 0 mm 0 mps 691 mmHg 94%

    22 January, Tuesday

    Time Temperature Precipitation Wind Pressure Humidity
    00:00 -6°C° 0 mm 0 mps 691 mmHg 94%
    01:00 -7°C° 0 mm 0 mps 690 mmHg 94%
    02:00 -7°C° 0 mm 0 mps 690 mmHg 94%
    03:00 -7°C° 0 mm 0 mps 689 mmHg 93%
    04:00 -8°C° 0 mm 0 mps 689 mmHg 93%
    05:00 -8°C° 0 mm 1 mps 688 mmHg 92%
    06:00 -8°C° 0 mm 1 mps 688 mmHg 92%
    07:00 -9°C° 0 mm 1 mps 687 mmHg 91%
    08:00 -7°C° 0 mm 1 mps 687 mmHg 86%
    09:00 -6°C° 0 mm 1 mps 687 mmHg 81%
    10:00 -3°C° 0 mm 1 mps 687 mmHg 76%
    11:00 -2°C° 0 mm 1 mps 686 mmHg 74%
    12:00 -1°C° 0 mm 1 mps 685 mmHg 72%
    13:00 0°C° 0 mm 1 mps 684 mmHg 70%
    14:00 -1°C° 0 mm 1 mps 683 mmHg 75%
    15:00 -1°C° 0 mm 1 mps 682 mmHg 80%
    16:00 -2°C° 0 mm 1 mps 681 mmHg 84%
    17:00 -3°C° 0 mm 1 mps 681 mmHg 87%
    18:00 -4°C° 0 mm 1 mps 680 mmHg 90%
    19:00 -6°C° 0 mm 0 mps 680 mmHg 93%
    20:00 -7°C° 0 mm 0 mps 679 mmHg 93%
    21:00 -7°C° 0 mm 0 mps 678 mmHg 93%
    22:00 -7°C° 0 mm 0 mps 678 mmHg 93%
    23:00 -7°C° 0 mm 0 mps 677 mmHg 92%

    23 January, Wednesday

    Time Temperature Precipitation Wind Pressure Humidity
    00:00 -7°C° 0 mm 0 mps 676 mmHg 91%
    01:00 -7°C° 0 mm 0 mps 675 mmHg 90%
    02:00 -7°C° 0 mm 0 mps 675 mmHg 89%
    03:00 -7°C° 0 mm 0 mps 674 mmHg 88%
    04:00 -7°C° 0 mm 0 mps 673 mmHg 86%
    05:00 -7°C° 0 mm 0 mps 673 mmHg 86%
    06:00 -7°C° 0 mm 0 mps 672 mmHg 86%
    07:00 -7°C° 0 mm 0 mps 672 mmHg 85%
    08:00 -6°C° 0 mm 1 mps 672 mmHg 84%
    09:00 -4°C° 0 mm 1 mps 671 mmHg 83%
    10:00 -3°C° 0 mm 1 mps 671 mmHg 82%
    11:00 -3°C° 0.5 mm 1 mps 670 mmHg 84%
    12:00 -3°C° 0.5 mm 1 mps 669 mmHg 85%
    13:00 -2°C° 0.5 mm 1 mps 668 mmHg 87%
    14:00 -3°C° 0.9 mm 1 mps 667 mmHg 89%
    15:00 -3°C° 0.9 mm 1 mps 667 mmHg 90%
    16:00 -3°C° 0.9 mm 1 mps 666 mmHg 92%
    17:00 -3°C° 1.1 mm 1 mps 666 mmHg 93%
    18:00 -5°C° 1.1 mm 2 mps 665 mmHg 94%
    19:00 -6°C° 1.1 mm 2 mps 665 mmHg 95%
    20:00 -6°C° 1 mm 2 mps 665 mmHg 95%
    21:00 -4°C° 1 mm 1 mps 665 mmHg 94%
    22:00 -4°C° 1 mm 1 mps 665 mmHg 94%
    23:00 -4°C° 0.2 mm 1 mps 665 mmHg 94%
    Show more